Content
SEND FEEDBACK

Daily
Averages
Monthly
Summary
United States of America

EARTH CITY, MISSOURI


Home > North America > United States > Missouri
Elevation: 476 feet     Latitude: 38 46N     Longitude: 090 30W

WEATHER
 
SELECT A DAY
Number of Records: 208,302;   Date Range: 1/1/95 - 12/19/14
 
SHARE

PRINT THIS DATA

[ ← Previous Day ]
WEATHER ALMANAC - APRIL 9, 2013
[ Next Day → ]
[ °C ]   °F
Weather ElementAverageHighLow
Temperature59 °F71 °F (7:00 pm)46 °F (7:00 pm)
Dewpoint33 °F (7:00 pm) (7:00 pm)
Humidity46 %71 % (7:00 pm)20 % (7:00 pm)
Wind Speed9 mph23 mph (7:00 pm)
Wind Gust30 mph (7:00 pm)

Weather ElementAverage
Visibility10 mi
Weather ElementTotal
Precipitation0.00 in
Averaged from records on April 9, 2013
WEATHER CONDITIONS BREAKOUT
WIND DIRECTION BREAKOUT
WEATHER BY HOUR - APRIL 9, 2013
[ °C ]   °F
Local TimeTemperatureDewpointHumidityBarometerVisibilityWind DirectionWind SpeedGust SpeedPrecipitationEventsConditions
1:51 AM69.1 °F55.9 °F63 %29.84 in10.0 miSE (140°)8.1 mphOvercast
2:51 AM68.0 °F55.9 °F65 %29.82 in10.0 miSE (140°)10.4 mphMostly Cloudy
3:51 AM66.0 °F55.9 °F70 %29.81 in10.0 miSSE (150°)11.5 mphScattered Clouds
4:51 AM66.0 °F55.0 °F68 %29.80 in10.0 miSSE (150°)11.5 mphPartly Cloudy
5:51 AM66.0 °F55.0 °F68 %29.81 in10.0 miSSE (150°)11.5 mphMostly Cloudy
6:51 AM66.9 °F55.0 °F66 %29.84 in10.0 miSouth (170°)13.8 mphMostly Cloudy
7:51 AM68.0 °F55.9 °F65 %29.84 in10.0 miSouth (170°)12.7 mph20.7 mphMostly Cloudy
8:51 AM68.0 °F55.9 °F65 %29.84 in10.0 miSouth (180°)17.3 mph25.3 mphMostly Cloudy
9:51 AM70.0 °F57.0 °F63 %29.85 in10.0 miSouth (180°)16.1 mph21.9 mphMostly Cloudy
10:51 AM73.0 °F57.0 °F57 %29.87 in10.0 miSouth (190°)12.7 mph23.0 mphOvercast
11:51 AM75.0 °F57.9 °F55 %29.85 in10.0 miSSW (200°)24.2 mph40.3 mphOvercast
12:51 PM73.0 °F57.9 °F59 %29.86 in10.0 miSSW (200°)17.3 mph29.9 mphOvercast
1:51 PM75.2 °F59.0 °F57 %29.87 in10.0 miSSW (200°)19.6 mphMostly Cloudy
2:51 PM77.0 °F59.0 °F54 %29.83 in10.0 miSSW (200°)17.3 mph26.5 mphMostly Cloudy
3:51 PM78.1 °F59.0 °F52 %29.82 in10.0 miSSW (200°)19.6 mph24.2 mphMostly Cloudy
4:51 PM79.0 °F59.0 °F50 %29.80 in10.0 miSSW (200°)16.1 mph23.0 mphMostly Cloudy
5:51 PM79.0 °F59.0 °F50 %29.80 in10.0 miSSW (210°)10.4 mphMostly Cloudy
6:51 PM78.1 °F59.0 °F52 %29.79 in10.0 miSSE (160°)11.5 mphScattered Clouds
7:51 PM75.0 °F60.1 °F60 %29.80 in10.0 miSE (140°)6.9 mphScattered Clouds
8:51 PM73.9 °F61.0 °F64 %29.81 in10.0 miSE (140°)8.1 mphScattered Clouds
9:51 PM70.0 °F60.1 °F71 %29.83 in10.0 miSE (130°)6.9 mphPartly Cloudy
10:51 PM69.1 °F59.0 °F70 %29.81 in10.0 miSE (140°)5.8 mphClear
11:51 PM72.0 °F59.0 °F64 %29.79 in10.0 miSSE (150°)8.1 mphClear
Hourly data recorded from KSTL, located miles away from Earth City, Missouri







STORIES FROM OUR PARTNERS